Starlink 1784

operational
NORAD ID: 46687 Int'l Des: 2020-073 Owner: SPXS Country: US Constellation: starlink
LEOCIRCULARSTARLINK_TYPE

Starlink 1784について

説明を読み込み中...

リアルタイム位置

3D地球を読み込み中...

次回通過

高度履歴

Altitude vs Time

uPlot chart will show altitude changes over time

軌道要素

1 46687U 20073T 25298.50003471 .02017006 00000-0 99537-1 0 9999
2 46687 53.0556 108.3835 0001102 78.0342 288.4002 15.14274303 5833
Epoch: Oct 25, 2025 • Age: 5 hours

現在のステータス

高度 525.3 km
速度 7.61 km/s
衛星直下点 46.57°N, 57.58°W
打ち上げ日 Oct 18, 2020
運用期間 5 years
タイプ internet

技術仕様

分類 Payload
質量 260.00 kg
乾燥質量 248.00 kg
総質量 260.00 kg
長さ 0.20 m
直径 2.80 m
スパン 9.00 m
形状 Box + pan
製造者 SPXS
バスタイプ Starlink
フェーズステータス In Orbit
所有者/国 SPXS/US

大規模コンステレーション

Loading constellations...